PAL265 RPLL-VHHH

Flight info

Callsign PAL265
Flight time N/A
Altitude 40000
Route CAB2V CAB A461 NOMAN V533 BETTY
Aircraft A333/H-SDE3GHIJ2J3J5M1RVWXY/LB2D1

Departure

Time 2026-05-04 01:41
Airport Ninoy Aquino International Airport (RPLL)

Arrival

Time N/A
Airport Hong Kong International Airport (VHHH)
Time Latitude Longitude Altitude Speed Heading
2026-05-04 01:30 14.50468 121.00657 86 ft 0 kts
2026-05-04 01:34 14.50452 121.00656 87 ft 2 kts
2026-05-04 01:34 14.50437 121.00655 87 ft 2 kts
2026-05-04 01:34 14.50422 121.00655 87 ft 1 kts
2026-05-04 01:34 14.50417 121.00655 87 ft 2 kts 358°
2026-05-04 01:35 14.50403 121.00660 87 ft 2 kts 309°
2026-05-04 01:35 14.50397 121.00674 87 ft 2 kts 268°
2026-05-04 01:35 14.50399 121.00685 87 ft 0 kts 238°
2026-05-04 01:35 14.50402 121.00690 87 ft 0 kts 238°
2026-05-04 01:37 14.50401 121.00690 87 ft 0 kts 238°
2026-05-04 01:37 14.50383 121.00656 87 ft 8 kts 242°
2026-05-04 01:37 14.50343 121.00581 87 ft 9 kts 239°
2026-05-04 01:38 14.50322 121.00544 87 ft 8 kts 239°
2026-05-04 01:38 14.50275 121.00463 86 ft 16 kts 239°
2026-05-04 01:38 14.50221 121.00362 87 ft 13 kts 239°
2026-05-04 01:38 14.50142 121.00332 87 ft 12 kts 195°
2026-05-04 01:39 14.50087 121.00273 87 ft 13 kts 241°
2026-05-04 01:39 14.50028 121.00162 86 ft 19 kts 241°
2026-05-04 01:39 14.49958 121.00033 87 ft 20 kts 240°
2026-05-04 01:39 14.49859 120.99972 87 ft 16 kts 167°
2026-05-04 01:40 14.49810 121.00018 87 ft 13 kts 113°
2026-05-04 01:40 14.49832 121.00099 87 ft 11 kts 59°
2026-05-04 01:40 14.49835 121.00105 87 ft 0 kts 61°
2026-05-04 01:41 14.49846 121.00125 87 ft 18 kts 61°
2026-05-04 01:41 14.49965 121.00338 87 ft 82 kts 61°
2026-05-04 01:41 14.50403 121.01121 105 ft 162 kts 63°
2026-05-04 01:41 14.51218 121.02664 851 ft 203 kts 63°
2026-05-04 01:42 14.51930 121.03952 2080 ft 217 kts 61°
2026-05-04 01:42 14.52413 121.04820 2836 ft 214 kts 60°
2026-05-04 01:42 14.53184 121.06195 3407 ft 228 kts 60°
2026-05-04 01:42 14.54019 121.07687 3947 ft 245 kts 60°
2026-05-04 01:43 14.55198 121.09793 4759 ft 261 kts 60°
2026-05-04 01:43 14.56108 121.11420 5609 ft 263 kts 60°
2026-05-04 01:43 14.57329 121.12839 6408 ft 267 kts 35°
2026-05-04 01:43 14.59094 121.13570 6915 ft 284 kts 11°
2026-05-04 01:44 14.60426 121.13569 7448 ft 286 kts 357°
2026-05-04 01:44 14.62400 121.13477 8406 ft 280 kts
2026-05-04 01:44 14.65020 121.13472 9328 ft 285 kts
2026-05-04 01:44 14.66383 121.13478 9781 ft 288 kts
2026-05-04 01:45 14.68403 121.13490 10360 ft 295 kts
2026-05-04 01:45 14.70541 121.13356 10605 ft 317 kts 349°
2026-05-04 01:45 14.75022 121.11747 10995 ft 356 kts 342°
2026-05-04 01:46 14.77450 121.10873 11243 ft 371 kts 342°
2026-05-04 01:46 14.79955 121.09972 11792 ft 375 kts 342°
2026-05-04 01:46 14.83320 121.08764 12069 ft 388 kts 342°
2026-05-04 01:46 14.85042 121.08146 12553 ft 386 kts 342°
2026-05-04 01:47 14.87574 121.07236 13324 ft 382 kts 342°
2026-05-04 01:47 14.90182 121.06471 13710 ft 386 kts 353°
2026-05-04 01:47 14.93817 121.06207 14364 ft 390 kts 358°
2026-05-04 01:47 14.95642 121.06082 14703 ft 391 kts 358°
2026-05-04 01:48 14.98435 121.05891 15190 ft 395 kts 358°
2026-05-04 01:48 15.01223 121.05697 15628 ft 399 kts 358°
2026-05-04 01:48 15.04025 121.05503 16055 ft 402 kts 357°
2026-05-04 01:48 15.06872 121.05306 16498 ft 405 kts 357°
2026-05-04 01:49 15.09735 121.05108 16913 ft 408 kts 357°
2026-05-04 01:49 15.12575 121.04910 17335 ft 411 kts 357°
2026-05-04 01:49 15.15488 121.04708 17748 ft 414 kts 357°
2026-05-04 01:49 15.18427 121.04505 18156 ft 417 kts 357°
2026-05-04 01:50 15.21341 121.04302 18551 ft 420 kts 357°
2026-05-04 01:50 15.24315 121.04095 18947 ft 423 kts 357°
2026-05-04 01:50 15.27305 121.03889 19344 ft 425 kts 357°
2026-05-04 01:50 15.30302 121.03680 19704 ft 428 kts 357°
2026-05-04 01:51 15.33324 121.03470 20086 ft 431 kts 356°
2026-05-04 01:51 15.36357 121.03258 20454 ft 433 kts 356°
2026-05-04 01:51 15.39431 121.03045 20788 ft 436 kts 356°
2026-05-04 01:51 15.42493 121.02831 21128 ft 438 kts 356°
2026-05-04 01:52 15.46612 121.02529 21553 ft 442 kts 354°
2026-05-04 01:52 15.48651 121.02090 21728 ft 444 kts 343°
2026-05-04 01:52 15.52421 121.00238 22192 ft 446 kts 332°
2026-05-04 01:52 15.55217 120.98738 22505 ft 448 kts 333°
2026-05-04 01:53 15.58034 120.97235 22810 ft 451 kts 333°
2026-05-04 01:53 15.60864 120.95728 23144 ft 452 kts 332°
2026-05-04 01:53 15.63719 120.94209 23519 ft 453 kts 332°
2026-05-04 01:53 15.65603 120.93207 23720 ft 454 kts 332°
2026-05-04 01:54 15.68480 120.91676 23962 ft 457 kts 332°
2026-05-04 01:54 15.72289 120.89648 24420 ft 458 kts 332°
2026-05-04 01:54 15.74196 120.88634 24643 ft 459 kts 332°
2026-05-04 01:54 15.78042 120.86585 25034 ft 461 kts 332°
2026-05-04 01:55 15.80935 120.85044 25319 ft 462 kts 332°
2026-05-04 01:55 15.83822 120.83505 25589 ft 464 kts 332°
2026-05-04 01:55 15.85764 120.82470 25778 ft 465 kts 332°
2026-05-04 01:55 15.88693 120.80907 26091 ft 466 kts 332°
2026-05-04 01:56 15.91611 120.79352 26379 ft 467 kts 332°
2026-05-04 01:56 15.95529 120.77261 26736 ft 469 kts 331°
2026-05-04 01:56 15.98446 120.75703 27003 ft 470 kts 331°
2026-05-04 01:56 16.00399 120.74661 27174 ft 471 kts 331°
2026-05-04 01:57 16.03379 120.73069 27420 ft 473 kts 331°
2026-05-04 01:57 16.04352 120.72549 27505 ft 473 kts 331°